Flag for U.S.A. Weather past 2 weeks in Coeur d'Alene, Idaho, U.S.A.

Now
41 °F

Overcast.


Feels Like: 36 °F
Forecast: 41 / 54 °F
Wind: 7 mph from South

Location: Coeur d'Alene Weather Reporting System


UV Index: 0 (Low)

Visibility: 10 mi


Pressure: 29.86 "Hg

Humidity: 81%

Dew point: 36 °F

Location of Coeur d'AleneLocation

Historic Weather in Coeur d'Alene

°F

Coeur d'Alene temperature yesterday

Maximum temperature yesterday: 50 °F (at 5:15 PM)
Minimum temperature yesterday: 36 °F (at 10:35 PM)
Average temperature yesterday: 45 °F

Past Weeks' High & Low Weather Summary

 TemperatureHumidityPressure
High63 °F (Apr 8, 7:15 PM)100% (Apr 20, 10:55 PM)30.36 "Hg (Apr 20, 10:55 PM)
Low28 °F (Apr 13, 5:35 AM)11% (Apr 9, 7:15 PM)29.67 "Hg (Apr 22, 4:35 AM)
Average46 °F61%29.98 "Hg
* Reported Apr 8 7:15 PM — Apr 23 7:55 PM, Coeur d'Alene, Weather by CustomWeather, © 2014

Note: Actual official high and low records may vary slightly from our data, if they occured in-between our weather recording intervals... More about our weather records

Advertising

Historic Weather Conditions — Data for Previous 24 hours

 ConditionsComfort  
Time TempWeatherWind HumidityBarometerVisibility
7:55 PM
Apr 23
39 °FPassing clouds.5 mph87%29.85 "Hg10 mi
7:35 PM41 °FPartly sunny.6 mph81%29.85 "Hg10 mi
7:15 PM41 °FBroken clouds.9 mph87%29.85 "Hg10 mi
6:55 PM41 °FMostly cloudy.10 mph81%29.85 "Hg10 mi
6:35 PM41 °FMostly cloudy.12 mph87%29.85 "Hg10 mi
6:15 PM43 °FMostly cloudy.10 mph81%29.85 "Hg10 mi
5:55 PM43 °FMostly cloudy.9 mph81%29.85 "Hg10 mi
5:35 PM41 °FMostly cloudy.8 mph81%29.84 "Hg10 mi
4:55 PM46 °FCloudy.6 mph53%29.83 "Hg10 mi
4:35 PM48 °FMostly cloudy.23 mph50%29.82 "Hg10 mi
4:15 PM50 °FMore clouds than sun.24 mph50%29.81 "Hg10 mi
3:55 PM48 °FBroken clouds.17 mph58%29.81 "Hg10 mi
3:35 PM48 °FScattered clouds.13 mph54%29.81 "Hg10 mi
3:15 PM52 °FBroken clouds.28 mph50%29.81 "Hg10 mi
2:55 PM50 °FPartly sunny.15 mph54%29.81 "Hg10 mi
2:35 PM48 °FBroken clouds.18 mph50%29.81 "Hg10 mi
2:15 PM52 °FScattered clouds.22 mph50%29.81 "Hg10 mi
1:55 PM54 °FScattered clouds.24 mph51%29.81 "Hg10 mi
1:35 PM52 °FScattered clouds.16 mph58%29.82 "Hg10 mi
1:15 PM50 °FCloudy.16 mph67%29.82 "Hg10 mi
12:55 PM46 °FMostly cloudy.No wind76%29.83 "Hg10 mi
12:35 PM43 °FBroken clouds.6 mph81%29.84 "Hg10 mi
12:15 PM43 °FMostly cloudy.No wind81%29.85 "Hg10 mi
11:55 AM43 °FCloudy.No wind81%29.84 "Hg10 mi
11:35 AM43 °FBroken clouds.No wind81%29.85 "Hg10 mi
11:15 AM39 °FPartly sunny.6 mph87%29.85 "Hg10 mi
10:55 AM41 °FOvercast.5 mph87%29.85 "Hg10 mi
10:35 AM39 °FOvercast.7 mph87%29.85 "Hg10 mi
10:15 AM39 °FOvercast.8 mph87%29.85 "Hg10 mi
9:55 AM37 °FOvercast.8 mph93%29.85 "Hg10 mi
9:35 AM37 °FOvercast.8 mph93%29.85 "Hg10 mi
9:15 AM37 °FOvercast.8 mph93%29.85 "Hg10 mi
8:55 AM36 °FOvercast.6 mph93%29.86 "Hg9 mi
8:35 AM36 °FOvercast.8 mph93%29.86 "Hg8 mi
8:15 AM36 °FMostly cloudy.5 mph93%29.86 "Hg7 mi
7:55 AM34 °FOvercast.No wind100%29.86 "Hg5 mi
7:35 AM34 °FMostly cloudy.No wind93%29.86 "Hg5 mi
6:55 AM34 °FOvercast.7 mph87%29.86 "Hg4 mi
6:35 AM34 °FOvercast.6 mph93%29.86 "Hg5 mi
6:15 AM36 °FOvercast.No wind87%29.86 "Hg6 mi
5:55 AM36 °FMostly cloudy.5 mph87%29.86 "Hg10 mi
5:35 AM36 °FMostly cloudy.No wind87%29.86 "Hg10 mi
4:55 AM36 °FMostly cloudy.6 mph87%29.86 "Hg10 mi
4:35 AM36 °FMostly cloudy.5 mph81%29.86 "Hg10 mi
4:15 AM34 °FPassing clouds.No wind81%29.87 "Hg10 mi
3:55 AM34 °FClear.No wind87%29.86 "Hg10 mi
3:35 AM32 °FClear.No wind80%29.86 "Hg10 mi
3:15 AM34 °FClear.No wind81%29.85 "Hg10 mi
2:55 AM36 °FClear.No wind75%29.85 "Hg10 mi
2:35 AM34 °FClear.No wind75%29.85 "Hg10 mi
2:15 AM36 °FClear.8 mph70%29.84 "Hg10 mi
1:55 AM36 °FClear.7 mph75%29.84 "Hg10 mi
1:35 AM36 °FClear.8 mph75%29.83 "Hg10 mi
1:15 AM36 °FClear.6 mph75%29.83 "Hg10 mi
12:55 AM34 °FClear.7 mph93%29.83 "Hg10 mi
12:35 AM34 °FClear.8 mph87%29.82 "Hg10 mi
12:15 AM36 °FClear.6 mph81%29.82 "Hg10 mi
11:55 PM
Apr 22
36 °FClear.No wind81%29.81 "Hg10 mi
11:35 PM36 °FClear.No wind81%29.81 "Hg10 mi
11:15 PM36 °FClear.No wind81%29.80 "Hg10 mi
10:55 PM36 °FClear.3 mph81%29.80 "Hg10 mi
10:35 PM36 °FClear.5 mph87%29.80 "Hg10 mi
10:15 PM37 °FClear.3 mph87%29.79 "Hg10 mi
9:55 PM39 °FClear.3 mph65%29.79 "Hg10 mi
9:35 PM37 °FPassing clouds.7 mph87%29.78 "Hg10 mi
9:15 PM41 °FPassing clouds.7 mph76%29.78 "Hg10 mi
Weather by CustomWeather, © 2014

See weather overview